Weather History for KE11 - July, 2013

Change the Weather History Date:

Wednesday, July 31, 2013

  Actual Average (KMAF) Record (KMAF)
Temperature  
Mean Temperature 86 °F 82 °F  
Max Temperature 97 °F 95 °F 105 °F (1944)
Min Temperature 75 °F 70 °F 60 °F (1971)
Cooling Degree Days 21 17  
Month to date cooling degree days 532  
Year to date cooling degree days 1382  
Since 1 June cooling degree days 993  
Growing Degree Days 36 (Base 50)    
Moisture  
Dew Point 62 °F    
Average Humidity 48    
Maximum Humidity 68    
Minimum Humidity 27    
Precipitation  
Precipitation 0.05 in 0.06 in 1.39 in (1936)
Month to date precipitation 1.82  
Year to date precipitation 7.88  
Sea Level Pressure  
Sea Level Pressure 30.13 in    
Wind  
Wind Speed 6 mph (SE)    
Max Wind Speed 15 mph    
Max Gust Speed 25 mph    
Visibility 10 miles    
Events      
T = Trace of Precipitation, MM = Missing Value Source: NWS Daily Summary

Daily Weather History Graph

Daily Weather History Graph

Search for Another Location

Airport or City:

Trip Planner

Search our weather history database for the weather conditions in past years. The results will help you decide how hot, cold, wet, or windy it might be!

Date:

Astronomy

Jul. 31, 2013 Rise Set
Actual Time 7:04 AM CDT 8:48 PM CDT
Civil Twilight 6:37 AM CDT 9:14 PM CDT
Nautical Twilight 6:05 AM CDT 9:47 PM CDT
Astronomical Twilight 5:31 AM CDT 10:21 PM CDT
Moon 2:00 AM CDT (7/31) 4:05 PM CDT (7/31)
Length of Visible Light 14h 37m
Length of Day
13h 43m
Waning Crescent, 31% of the Moon is Illuminated
Jul 31
Waning Crescent
Aug 6
New
Aug 14
First Quarter
Aug 20
Full
Aug 28
Last Quarter

Hourly Weather History & Observations

Time (CDT) Temp. Heat Index Dew Point Humidity Pressure Visibility Wind Dir Wind Speed Gust Speed Precip Events Conditions
12:15 AM 79.9 °F - 64.9 °F 60% 30.11 in 10.0 mi SE 4.6 mph - N/A   Clear
12:35 AM 79.2 °F - 64.9 °F 62% 30.10 in 10.0 mi SE 3.5 mph - N/A   Clear
12:55 AM 78.3 °F - 65.7 °F 65% 30.10 in 10.0 mi SE 4.6 mph - N/A   Clear
1:15 AM 77.9 °F - 65.7 °F 66% 30.10 in 10.0 mi SE 5.8 mph - N/A   Clear
1:55 AM 77.2 °F - 65.8 °F 68% 30.12 in 10.0 mi SE 5.8 mph - N/A   Clear
2:15 AM 77.9 °F - 65.5 °F 65% 30.13 in 10.0 mi SSE 4.6 mph - N/A   Clear
2:35 AM 77.2 °F - 65.3 °F 67% 30.12 in 10.0 mi SSE 5.8 mph - N/A   Clear
2:55 AM 77.2 °F - 64.8 °F 65% 30.13 in 10.0 mi SSE 5.8 mph - N/A   Clear
3:15 AM 77.2 °F - 63.9 °F 63% 30.12 in 10.0 mi South 5.8 mph - N/A   Clear
3:35 AM 77.5 °F - 63.5 °F 62% 30.12 in 10.0 mi South 5.8 mph - N/A   Clear
3:55 AM 77.7 °F - 63.5 °F 61% 30.12 in 10.0 mi South 5.8 mph - N/A   Clear
4:15 AM 77.9 °F - 62.6 °F 59% 30.12 in 10.0 mi South 9.2 mph - N/A   Clear
4:35 AM 77.9 °F - 62.6 °F 59% 30.12 in 10.0 mi SSW 9.2 mph - N/A   Clear
4:55 AM 77.9 °F - 62.1 °F 58% 30.13 in 10.0 mi SSW 6.9 mph - N/A   Clear
5:15 AM 77.5 °F - 62.1 °F 59% 30.13 in 10.0 mi SSW 6.9 mph - N/A   Clear
5:35 AM 76.5 °F - 62.4 °F 62% 30.13 in 10.0 mi SSW 6.9 mph - N/A   Clear
5:55 AM 76.1 °F - 62.4 °F 62% 30.13 in 10.0 mi SW 6.9 mph - N/A   Clear
6:15 AM 75.9 °F - 62.2 °F 62% 30.13 in 10.0 mi SW 8.1 mph - N/A   Clear
6:35 AM 75.6 °F - 62.2 °F 63% 30.14 in 10.0 mi SW 6.9 mph - N/A   Clear
6:55 AM 75.2 °F - 62.6 °F 65% 30.14 in 10.0 mi SW 5.8 mph - N/A   Clear
7:15 AM 75.0 °F - 62.6 °F 65% 30.15 in 10.0 mi SW 4.6 mph - N/A   Clear
7:35 AM 75.2 °F - 62.8 °F 65% 30.15 in 10.0 mi SSW 3.5 mph - N/A   Clear
7:55 AM 75.4 °F - 63.1 °F 66% 30.16 in 10.0 mi Calm Calm - N/A   Clear
8:15 AM 75.9 °F - 63.9 °F 66% 30.17 in 10.0 mi Calm Calm - N/A   Clear
8:35 AM 77.0 °F - 63.7 °F 63% 30.18 in 10.0 mi South 3.5 mph - N/A   Clear
8:55 AM 78.6 °F - 62.8 °F 58% 30.18 in 10.0 mi South 5.8 mph - N/A   Clear
9:15 AM 79.0 °F - 62.6 °F 57% 30.18 in 10.0 mi South 3.5 mph - N/A   Clear
9:35 AM - - - N/A% - - North - - N/A   Unknown
10:35 AM 84.0 °F 85.2 °F 63.5 °F 50% 30.19 in 10.0 mi SSE 3.5 mph - N/A   Clear
10:55 AM 84.9 °F 86.1 °F 63.7 °F 49% 30.19 in 10.0 mi Calm Calm - N/A   Clear
11:15 AM 86.4 °F 87.6 °F 64.0 °F 47% 30.19 in 10.0 mi ESE 3.5 mph - N/A   Clear
11:55 AM 87.8 °F 89.4 °F 64.6 °F 46% 30.19 in 10.0 mi Calm Calm - N/A   Clear
12:15 PM 88.5 °F 90.1 °F 64.4 °F 45% 30.19 in 10.0 mi East 4.6 mph - N/A   Clear
12:35 PM 89.6 °F 90.4 °F 63.1 °F 41% 30.19 in 10.0 mi ESE 3.5 mph - N/A   Clear
12:55 PM 90.0 °F 91.0 °F 63.7 °F 41% 30.18 in 10.0 mi SE 5.8 mph - N/A   Clear
1:15 PM 92.3 °F 94.3 °F 64.8 °F 40% 30.18 in 10.0 mi SE 6.9 mph - N/A   Clear
1:35 PM 92.5 °F 94.6 °F 64.9 °F 40% 30.18 in 10.0 mi SSE 6.9 mph - N/A   Clear
1:55 PM 93.2 °F 94.9 °F 64.2 °F 38% 30.17 in 10.0 mi SE 4.6 mph - N/A   Clear
2:15 PM 93.0 °F 94.6 °F 63.7 °F 38% 30.17 in 10.0 mi ESE 9.2 mph - N/A   Scattered Clouds
2:35 PM 93.9 °F 94.8 °F 62.4 °F 35% 30.16 in 10.0 mi East 5.8 mph - N/A   Scattered Clouds
2:55 PM 95.2 °F 96.3 °F 63.0 °F 34% 30.16 in 10.0 mi ENE 5.8 mph - N/A   Scattered Clouds
3:15 PM 95.4 °F 95.7 °F 61.5 °F 32% 30.14 in 10.0 mi East 9.2 mph - N/A   Scattered Clouds
3:35 PM 95.5 °F 95.2 °F 59.7 °F 30% 30.13 in 10.0 mi ESE 4.6 mph - N/A   Clear
3:55 PM 96.3 °F 97.2 °F 61.9 °F 32% 30.12 in 10.0 mi ESE 9.2 mph 18.4 mph N/A   Scattered Clouds
4:15 PM 96.8 °F 96.7 °F 59.5 °F 29% 30.11 in 10.0 mi East 13.8 mph 18.4 mph N/A   Scattered Clouds
4:35 PM 96.8 °F 96.7 °F 60.1 °F 29% 30.11 in 10.0 mi East 15.0 mph 21.9 mph N/A   Scattered Clouds
4:55 PM 97.3 °F 97.5 °F 60.4 °F 29% 30.10 in 10.0 mi ESE 10.4 mph 19.6 mph N/A   Scattered Clouds
5:15 PM 96.8 °F 96.7 °F 59.2 °F 29% 30.09 in 10.0 mi ESE 9.2 mph 25.3 mph N/A   Clear
5:35 PM 97.0 °F 96.1 °F 57.4 °F 27% 30.08 in 10.0 mi East 11.5 mph 20.7 mph N/A   Clear
5:55 PM 96.8 °F 95.8 °F 57.6 °F 27% 30.09 in 10.0 mi ESE 12.7 mph 18.4 mph N/A   Clear
6:15 PM 96.1 °F 94.8 °F 57.4 °F 27% 30.08 in 10.0 mi East 11.5 mph 19.6 mph N/A   Clear
6:35 PM 95.7 °F 94.7 °F 57.4 °F 28% 30.07 in 10.0 mi ESE 10.4 mph - N/A   Clear
6:55 PM 95.5 °F 94.1 °F 56.3 °F 27% 30.07 in 10.0 mi East 5.8 mph - N/A   Clear
7:15 PM 95.4 °F 93.8 °F 56.1 °F 27% 30.07 in 10.0 mi ESE 9.2 mph - N/A   Clear
7:35 PM 93.4 °F 91.8 °F 57.0 °F 29% 30.08 in 10.0 mi ESE 10.4 mph - N/A   Clear
7:55 PM 92.1 °F 91.7 °F 59.9 °F 34% 30.08 in 10.0 mi ESE 9.2 mph - N/A   Clear
8:15 PM 90.7 °F 90.4 °F 60.3 °F 36% 30.09 in 10.0 mi ESE 9.2 mph - N/A   Clear
8:35 PM 89.8 °F 89.4 °F 60.4 °F 37% 30.10 in 10.0 mi ESE 8.1 mph - N/A   Clear
8:55 PM 88.7 °F 88.8 °F 61.3 °F 40% 30.10 in 10.0 mi SE 8.1 mph - N/A   Clear
9:15 PM 88.2 °F 88.4 °F 61.7 °F 41% 30.10 in 10.0 mi ESE 8.1 mph - N/A   Clear
9:35 PM 86.9 °F 87.5 °F 62.8 °F 44% 30.12 in 10.0 mi ESE 6.9 mph - N/A   Clear
9:55 PM 85.5 °F 86.6 °F 63.5 °F 48% 30.13 in 10.0 mi East 8.1 mph - N/A   Clear
10:15 PM 85.8 °F 86.1 °F 61.7 °F 44% 30.14 in 10.0 mi East 8.1 mph - N/A   Clear
10:35 PM 85.3 °F 85.7 °F 61.7 °F 45% 30.14 in 10.0 mi ESE 5.8 mph - N/A   Clear
10:55 PM 84.6 °F 84.8 °F 61.3 °F 45% 30.14 in 10.0 mi ESE 6.9 mph - N/A   Clear
11:15 PM 83.8 °F 84.3 °F 61.5 °F 47% 30.14 in 10.0 mi ESE 4.6 mph - N/A   Clear
11:35 PM 82.4 °F 83.4 °F 62.4 °F 51% 30.13 in 10.0 mi ESE 4.6 mph - N/A   Clear
11:55 PM 81.9 °F 83.1 °F 63.0 °F 53% 30.14 in 10.0 mi SE 4.6 mph - N/A   Clear